Weather in Kordovo

Russia / Krasnoyarsk Krai     54°05′31″N   93°16′41″E
temp.,
°C
wind,
m/s
gust,
m/s
humid.,
%
clouds,
%
prec.,
mm/h
press.,
hPa
HPBL,
m
22 january, fri
fri2201:00−10ene1197100 0.4 101728
04:00−9e1297100 0.4 101438
07:00−10e1296100 0.8 101126
10:00−8se1294100 0.1 1008114
13:00−6ese1291100 0.3 1006204
16:00−5sse1396100 0.8 1007214
19:00−5sw0198100 2.8 101025
22:00−5ssw0198100 1.9 101121
23 january, sat
sat2301:00−5wnw1197100 3.3 101427
04:00−7nnw2596100 1.1 1018311
07:00−9w2496100 1.7 1022171
10:00−10wsw1296100 0.6 1026142
13:00−10sw5785100 1.1 1028804
16:00−13wsw268894 0.0 1029335
19:00−15s128997 0.0 103221
22:00−17sse1292100 0.0 103420
24 january, sun
sun2401:00−19ese119698 0.0 103420
04:00−20ene119792 0.0 103420
07:00−20e119596 0.0 103420
10:00−17ene1194100 0.0 103545
13:00−14se1193100 0.1 1033207
16:00−14ese1195100 0.1 103361
19:00−17ene1197100 0.1 103420
22:00−17ene1296100 0.0 103420
25 january, mon
mon2501:00−18ene1195100 0.0 103321
04:00−16se1197100 0.9 103443
07:00−17ssw1398100 1.3 1036130
10:00−17wsw2597100 0.5 1039291
13:00−17sw3494100 0.9 1039547
16:00−19sw2495100 0.3 1040479
19:00−22sw1299100 0.6 104328
22:00−24ssw1199100 0.2 104320
26 january, tue
tue2601:00−25sse1199100 0.3 104319
04:00−27sse01100100 0.1 104419
07:00−30ssw0010099 0.1 104419
10:00−29w009995 0.0 104420
13:00−24sw119396 0.1 1042270
16:00−25wsw1195100 0.0 1042120
19:00−30w1199100 0.0 104519
22:00−32wnw019999 0.0 104619